Change the Weather History Date:

Monday, June 16, 2014

  Actual Average Record
Temperature  
Mean Temperature 67 °F -  
Max Temperature 78 °F 79 °F 91 °F (2007)
Min Temperature 57 °F 55 °F 43 °F (1976)
Cooling Degree Days 2    
Growing Degree Days 17 (Base 50)    
Moisture  
Dew Point 61 °F    
Average Humidity 87    
Maximum Humidity 94    
Minimum Humidity 68    
Precipitation  
Precipitation 2.86 in - - ()
Sea Level Pressure  
Sea Level Pressure 29.76 in    
Wind  
Wind Speed 15 mph (ESE)    
Max Wind Speed 29 mph    
Max Gust Speed 44 mph    
Visibility 7 miles    
Events Rain , Thunderstorm    
Averages and records for this station are not official NWS values.
T = Trace of Precipitation, MM = Missing Value Source: NWS Daily Summary

Daily Weather History Graph

Daily Weather History Graph

Search for Another Location

Airport or City:

Trip Planner

Search our weather history database for the weather conditions in past years. The results will help you decide how hot, cold, wet, or windy it might be!

Date:

Astronomy

Jun. 16, 2014 Rise Set
Actual Time 5:40 AM CDT 9:02 PM CDT
Civil Twilight 5:04 AM CDT 9:38 PM CDT
Nautical Twilight 4:18 AM CDT 10:24 PM CDT
Astronomical Twilight 3:21 AM CDT 11:22 PM CDT
Moon 11:48 PM CDT (6/16) 9:51 AM CDT (6/16)
Length of Visible Light 16h 33m
Length of Day
15h 22m
Waning Gibbous, 83% of the Moon is Illuminated
Jun 16
Waning Gibbous
Jun 19
Last Quarter
Jun 27
New
Jul 5
First Quarter
Jul 12
Full

Hourly Weather History & Observations

Time (CDT) Temp. Dew Point Humidity Pressure Visibility Wind Dir Wind Speed Gust Speed Precip Events Conditions
12:53 AM 61.0 °F 55.9 °F 83% 29.89 in 10.0 mi South 9.2 mph - N/A   Clear
1:53 AM 60.1 °F 55.0 °F 83% 29.89 in 10.0 mi South 5.8 mph - N/A   Clear
2:53 AM 59.0 °F 55.0 °F 87% 29.89 in 10.0 mi South 6.9 mph - N/A   Clear
3:53 AM 57.0 °F 54.0 °F 89% 29.89 in 10.0 mi SSE 6.9 mph - N/A   Clear
4:53 AM 57.9 °F 54.0 °F 87% 29.89 in 10.0 mi South 6.9 mph - N/A   Clear
5:53 AM 59.0 °F 55.0 °F 87% 29.89 in 10.0 mi SSE 8.1 mph - N/A   Clear
6:53 AM 61.0 °F 57.0 °F 87% 29.91 in 10.0 mi South 8.1 mph - N/A   Clear
7:53 AM 64.9 °F 60.1 °F 84% 29.89 in 10.0 mi SSE 10.4 mph - N/A   Clear
8:53 AM 72.0 °F 64.0 °F 76% 29.87 in 10.0 mi South 15.0 mph - N/A   Clear
9:53 AM 73.0 °F 66.0 °F 79% 29.86 in 10.0 mi SSE 13.8 mph 23.0 mph N/A   Clear
10:53 AM 72.0 °F 64.9 °F 78% 29.88 in 10.0 mi South 11.5 mph - N/A   Clear
11:53 AM 71.1 °F 64.0 °F 78% 29.90 in 10.0 mi SSE 15.0 mph - N/A   Scattered Clouds
12:53 PM 71.1 °F 66.9 °F 87% 29.79 in 10.0 mi SE 20.7 mph 32.2 mph 0.03 in Rain Light Rain
1:53 PM 73.0 °F 62.1 °F 68% 29.71 in 10.0 mi SE 19.6 mph 29.9 mph 0.00 in   Mostly Cloudy
2:18 PM 72.0 °F 64.9 °F 78% 29.71 in 10.0 mi SE 15.0 mph 25.3 mph 0.00 in Rain , Thunderstorm Light Thunderstorms and Rain
2:46 PM 73.0 °F 66.9 °F 81% 29.69 in 10.0 mi SE 26.5 mph 31.1 mph 0.00 in   Mostly Cloudy
2:53 PM 73.0 °F 66.9 °F 81% 29.65 in 10.0 mi SE 25.3 mph 32.2 mph 0.00 in   Mostly Cloudy
3:26 PM 73.9 °F 69.1 °F 85% 29.65 in 10.0 mi SSE 24.2 mph 33.4 mph N/A   Mostly Cloudy
3:53 PM 75.9 °F 70.0 °F 82% 29.59 in 10.0 mi SSE 26.5 mph 36.8 mph N/A   Scattered Clouds
4:01 PM 75.9 °F 70.0 °F 82% 29.61 in 10.0 mi SSE 24.2 mph 36.8 mph N/A Thunderstorm Scattered Clouds
4:21 PM 75.9 °F 71.1 °F 85% 29.63 in 2.5 mi ENE 10.4 mph 19.6 mph 0.17 in Rain , Thunderstorm Light Rain
4:28 PM 77.0 °F 70.0 °F 79% 29.66 in 10.0 mi SSW 5.8 mph - 0.17 in Thunderstorm Overcast
4:35 PM 75.9 °F 70.0 °F 82% 29.65 in 10.0 mi SSW 12.7 mph 17.3 mph 0.17 in Thunderstorm Overcast
4:46 PM 77.0 °F 70.0 °F 79% 29.67 in 10.0 mi South 10.4 mph 20.7 mph 0.17 in   Overcast
4:53 PM 77.0 °F 70.0 °F 79% 29.66 in 10.0 mi Variable 5.8 mph - 0.17 in   Overcast
5:13 PM 64.0 °F 60.1 °F 87% 29.75 in 10.0 mi North 26.5 mph 36.8 mph N/A Thunderstorm Overcast
5:20 PM 64.9 °F 59.0 °F 81% 29.75 in 9.0 mi NNE 27.6 mph 43.7 mph 0.00 in Rain , Thunderstorm Light Thunderstorms and Rain
5:37 PM 62.1 °F 59.0 °F 90% 29.71 in 2.5 mi NE 23.0 mph 31.1 mph 0.12 in Rain , Thunderstorm Heavy Thunderstorms and Rain
5:42 PM 63.0 °F 59.0 °F 87% 29.73 in 3.0 mi NNE 26.5 mph 34.5 mph 0.13 in Rain , Thunderstorm Thunderstorms and Rain
5:53 PM 63.0 °F 60.1 °F 90% 29.79 in 9.0 mi ENE 19.6 mph 33.4 mph 0.15 in Rain , Thunderstorm Thunderstorms and Rain
6:03 PM 62.1 °F 60.1 °F 93% 29.81 in 2.0 mi ENE 25.3 mph 38.0 mph 0.23 in Rain , Thunderstorm Heavy Thunderstorms and Rain
6:10 PM 62.1 °F 60.1 °F 93% 29.82 in 1.2 mi ENE 25.3 mph 35.7 mph 0.39 in Rain , Thunderstorm Heavy Rain
6:25 PM 63.0 °F 61.0 °F 93% 29.77 in 2.0 mi NNE 26.5 mph - 0.59 in Rain , Thunderstorm Heavy Thunderstorms and Rain
6:32 PM 63.0 °F 61.0 °F 93% 29.76 in 2.5 mi NNE 21.9 mph 32.2 mph 0.62 in Rain , Thunderstorm Thunderstorms and Rain
6:39 PM 64.0 °F 61.0 °F 90% 29.75 in 3.0 mi NNE 21.9 mph 32.2 mph 0.69 in Rain , Thunderstorm Heavy Thunderstorms and Rain
6:42 PM 64.0 °F 61.0 °F 90% 29.75 in 2.5 mi NE 24.2 mph 32.2 mph 0.72 in Rain , Thunderstorm Heavy Rain
6:53 PM 63.0 °F 61.0 °F 93% 29.68 in 2.5 mi NE 28.8 mph 35.7 mph 0.83 in Rain , Thunderstorm Heavy Thunderstorms and Rain
7:02 PM 63.0 °F 61.0 °F 93% 29.73 in 4.0 mi NE 18.4 mph 34.5 mph 0.07 in Rain , Thunderstorm Heavy Thunderstorms and Rain
7:21 PM 63.0 °F 60.1 °F 90% 29.70 in 10.0 mi ENE 20.7 mph 26.5 mph 0.11 in Rain , Thunderstorm Light Rain
7:29 PM 63.0 °F 60.1 °F 90% 29.68 in 10.0 mi ENE 23.0 mph - 0.11 in Rain Light Rain
7:53 PM 63.0 °F 59.0 °F 87% 29.66 in 10.0 mi NE 26.5 mph 33.4 mph 0.12 in Rain , Thunderstorm Light Rain
8:03 PM 62.1 °F 59.0 °F 90% 29.69 in 3.0 mi ENE 19.6 mph 34.5 mph 0.15 in Rain , Thunderstorm Heavy Thunderstorms and Rain
8:06 PM 62.1 °F 59.0 °F 90% 29.72 in 1.8 mi East 19.6 mph 34.5 mph 0.24 in Rain , Thunderstorm Heavy Thunderstorms and Rain
8:26 PM 61.0 °F 59.0 °F 93% 29.80 in 1.2 mi ENE 15.0 mph - 0.59 in Rain , Thunderstorm Heavy Rain
8:37 PM 61.0 °F 59.0 °F 93% 29.73 in 1.8 mi NE 18.4 mph - 0.77 in Rain , Thunderstorm Heavy Thunderstorms and Rain
8:43 PM 61.0 °F 59.0 °F 93% 29.72 in 3.0 mi NE 27.6 mph 35.7 mph 0.79 in Rain , Thunderstorm Thunderstorms and Rain
8:53 PM 61.0 °F 59.0 °F 93% 29.73 in 3.0 mi East 20.7 mph - 0.88 in Rain , Thunderstorm Heavy Rain
8:57 PM 61.0 °F 59.0 °F 93% 29.74 in 2.5 mi East 17.3 mph 23.0 mph 0.05 in Rain , Thunderstorm Heavy Thunderstorms and Rain
9:07 PM 61.0 °F 59.0 °F 93% 29.71 in 4.0 mi East 18.4 mph - 0.11 in Rain , Thunderstorm Heavy Thunderstorms and Rain
9:18 PM 61.0 °F 59.0 °F 93% 29.70 in 6.0 mi East 23.0 mph 29.9 mph 0.14 in Rain , Thunderstorm Rain
9:46 PM 62.1 °F 59.0 °F 90% 29.70 in 10.0 mi East 25.3 mph 33.4 mph 0.16 in Rain Light Rain
9:53 PM 62.1 °F 59.0 °F 90% 29.69 in 6.0 mi East 25.3 mph 32.2 mph 0.22 in Rain Light Rain
10:05 PM 62.1 °F 59.0 °F 90% 29.75 in 3.0 mi East 15.0 mph - 0.12 in Rain , Thunderstorm Heavy Rain
10:18 PM 62.1 °F 60.1 °F 93% 29.77 in 4.0 mi East 9.2 mph - 0.18 in Rain , Thunderstorm Thunderstorms and Rain
10:32 PM 62.1 °F 60.1 °F 93% 29.82 in 4.0 mi East 4.6 mph 19.6 mph 0.26 in Rain Rain
10:39 PM 62.1 °F 60.1 °F 93% 29.80 in 2.5 mi ESE 9.2 mph - 0.36 in Rain , Thunderstorm Heavy Rain
10:50 PM 62.6 °F 60.8 °F 94% 29.79 in 5.0 mi Variable 5.8 mph - 0.39 in Rain , Thunderstorm Rain
10:53 PM 62.1 °F 60.1 °F 93% 29.77 in 5.0 mi ESE 10.4 mph - 0.39 in Rain Light Rain
11:12 PM 62.1 °F 60.1 °F 93% 29.78 in 8.0 mi East 10.4 mph - 0.02 in Rain , Thunderstorm Light Thunderstorms and Rain
11:48 PM 62.6 °F 60.8 °F 94% 29.86 in 9.0 mi ESE 5.8 mph - 0.07 in Rain Light Rain
11:53 PM 62.1 °F 60.1 °F 93% 29.87 in 9.0 mi ESE 6.9 mph - 0.07 in Rain Light Rain